Regional Weather Roundup
Issued by NWS Little Rock, AR

Home | Current Version | Previous Version | Text Only | Print | Product List | Glossary On
Versions: 1 2 3 4 5 6 7 8 9 10 11 12 13 14 15 16 17 18 19 20 21 22 23 24 25 26 27 28 29 30 31 32 33 34 35 36 37 38 39 40 41 42 43 44 45 46 47 48 49 50
000
ASUS44 KLZK 281405
RWRLZK

WEATHER ROUNDUP FOR ARKANSAS
NATIONAL WEATHER SERVICE LITTLE ROCK AR
900 AM CDT SAT MAY 28 2016

NOTE: "FAIR" INDICATES FEW OR NO CLOUDS BELOW 12,000 FEET WITH NO
SIGNIFICANT WEATHER AND/OR OBSTRUCTIONS TO VISIBILITY.

ARZ001-003-010-029-281500-
NORTHWEST ARKANSAS

CITY           SKY/WX    TMP DP  RH WIND       PRES   REMARKS
FAYETTEVILLE   PTSUNNY   68  63  84 SW9       29.94R
FORT SMITH     SUNNY     71  63  75 VRB5      29.93R
HARRISON       CLOUDY    69  62  78 S7        29.93R
BENTONVILLE    CLOUDY    64  59  82 SW7       29.95R
ROGERS         CLOUDY    65  62  90 SW12G17   29.95R
SILOAM SPGS    CLOUDY    64  55  72 SW14      29.95R
HIGHFILL       CLOUDY    65  63  93 SW15      29.94R
SPRINGDALE     CLOUDY    68  63  83 SW10G17   29.95R
$$

ARZ004-005-016-281500-
NORTH CENTRAL ARKANSAS

CITY           SKY/WX    TMP DP  RH WIND       PRES   REMARKS
BATESVILLE     MOSUNNY   72  64  78 S6        29.96R
FLIPPIN        CLOUDY   N/A N/A N/A SE3       29.89R
MTN HOME       SUNNY     71  63  75 S6        29.92R
$$

ARZ040-041-281500-
WEST CENTRAL ARKANSAS

CITY           SKY/WX    TMP DP  RH WIND       PRES   REMARKS
MENA           CLOUDY    70  64  83 SW3       29.96R
MOUNT IDA      CLOUDY    68  62  81 VRB3      29.93R
$$

ARZ009-017-025-026-028-281500-
NORTHEAST ARKANSAS

CITY           SKY/WX    TMP DP  RH WIND       PRES   REMARKS
CORNING          N/A     73  70  88 S8        29.97S
JONESBORO      CLOUDY    72  67  84 S8        29.97R
NEWPORT        MOSUNNY   74  68  81 S12       29.97R
WALNUT RIDGE   MOSUNNY   72  64  78 S12       29.96S
BLYTHEVILLE    PTSUNNY   74  67  78 S13       29.99R
$$

ARZ022-023-033-042-044-281500-
CENTRAL ARKANSAS

CITY           SKY/WX    TMP DP  RH WIND       PRES   REMARKS
LITTLE ROCK    PTSUNNY   70  64  81 CALM      29.96R
N LITTLE ROCK    N/A     69  65  85 CALM      29.94R
JACKSONVILLE   MOSUNNY   71  66  84 SE3       29.95R
SEARCY         PTSUNNY   72  67  84 S7        29.97R
HOT SPRINGS    CLOUDY    72  64  76 SW5       29.95R
RUSSELLVILLE   CLOUDY    72  63  73 S5        29.94R
CLINTON        FAIR      72  66  83 CALM      29.95R
$$

ARZ036-281500-
EAST ARKANSAS

CITY           SKY/WX    TMP DP  RH WIND       PRES   REMARKS
WEST MEMPHIS   CLOUDY    75  67  76 S13       29.97R
$$

ARZ050-053-066-070-073-281500-
SOUTHWEST ARKANSAS

CITY           SKY/WX    TMP DP  RH WIND       PRES   REMARKS
ARKADELPHIA    FAIR      73  67  81 VRB5      29.96R
CAMDEN         MOSUNNY   70  64  83 CALM      29.96R
TEXARKANA      CLOUDY    67  64  90 S6        29.96R
EL DORADO      MOSUNNY   67  65  93 SE3       29.96R
DE QUEEN       CLOUDY    67  65  93 CALM      29.94R
$$

ARZ056-057-069-281500-
SOUTHEAST ARKANSAS

CITY           SKY/WX    TMP DP  RH WIND       PRES   REMARKS
PINE BLUFF     MOSUNNY   72  66  81 SE9       29.96R
STUTTGART      MOSUNNY   73  64  73 S14       29.97R
MONTICELLO     PTSUNNY   73  67  81 VRB5      29.97R

$$





USA.gov is the U.S. government's official web portal to all federal, state and local government web resources and services.